TimePDT,TemperatureF,Dew PointF,Humidity,Sea Level PressureIn,VisibilityMPH,Wind Direction,Wind SpeedMPH,Gust SpeedMPH,PrecipitationIn,Events,Conditions,WindDirDegrees,DateUTC
12:51 AM,59.0,57.9,96,29.79,6.0,Calm,Calm,-,0.01,,Clear,0,2013-09-17 07:51:00
1:51 AM,55.9,55.0,97,29.79,6.0,Calm,Calm,-,N/A,,Clear,0,2013-09-17 08:51:00
2:51 AM,55.0,54.0,96,29.79,7.0,Calm,Calm,-,N/A,,Partly Cloudy,0,2013-09-17 09:51:00
3:51 AM,54.0,54.0,100,29.79,8.0,ENE,3.5,-,N/A,,Clear,60,2013-09-17 10:51:00
4:51 AM,55.0,54.0,96,29.78,8.0,Calm,Calm,-,N/A,,Clear,0,2013-09-17 11:51:00
5:27 AM,53.6,53.6,100,29.79,9.0,Calm,Calm,-,N/A,,Partly Cloudy,0,2013-09-17 12:27:00
5:42 AM,53.6,53.6,100,29.79,8.0,NE,4.6,-,N/A,,Mostly Cloudy,50,2013-09-17 12:42:00
5:51 AM,55.0,54.0,96,29.80,4.0,NE,3.5,-,N/A,,Overcast,40,2013-09-17 12:51:00
6:00 AM,55.4,55.4,100,29.80,2.5,Calm,Calm,-,N/A,,Overcast,0,2013-09-17 13:00:00
6:27 AM,55.4,55.4,100,29.80,3.0,NE,3.5,-,N/A,,Overcast,50,2013-09-17 13:27:00
6:51 AM,57.0,57.0,100,29.81,3.0,Calm,Calm,-,N/A,,Overcast,0,2013-09-17 13:51:00
6:54 AM,57.2,57.2,100,29.81,2.5,Calm,Calm,-,N/A,,Overcast,0,2013-09-17 13:54:00
7:05 AM,57.2,57.2,100,29.81,1.2,Calm,Calm,-,N/A,,Overcast,0,2013-09-17 14:05:00
7:29 AM,57.2,57.2,100,29.81,2.0,Calm,Calm,-,N/A,,Overcast,0,2013-09-17 14:29:00
7:51 AM,57.9,57.9,100,29.82,2.0,Calm,Calm,-,N/A,,Overcast,0,2013-09-17 14:51:00
8:28 AM,59.0,57.2,94,29.82,3.0,Calm,Calm,-,N/A,,Overcast,0,2013-09-17 15:28:00
8:51 AM,60.1,57.9,93,29.83,8.0,Variable,5.8,-,N/A,,Overcast,0,2013-09-17 15:51:00
9:51 AM,61.0,57.9,90,29.83,9.0,West,6.9,-,N/A,,Overcast,260,2013-09-17 16:51:00
10:51 AM,63.0,57.9,84,29.83,8.0,WSW,5.8,-,N/A,,Mostly Cloudy,250,2013-09-17 17:51:00
11:08 AM,64.4,57.2,77,29.82,9.0,SW,6.9,-,N/A,,Partly Cloudy,230,2013-09-17 18:08:00
11:51 AM,64.9,57.9,78,29.81,10.0,WSW,6.9,-,N/A,,Clear,250,2013-09-17 18:51:00
12:08 PM,64.4,57.2,77,29.81,10.0,West,9.2,-,N/A,,Partly Cloudy,270,2013-09-17 19:08:00
12:51 PM,64.9,57.9,78,29.81,10.0,West,11.5,-,N/A,,Partly Cloudy,260,2013-09-17 19:51:00
1:51 PM,66.0,57.9,75,29.78,10.0,WSW,10.4,-,N/A,,Clear,250,2013-09-17 20:51:00
2:51 PM,66.0,57.0,73,29.76,10.0,SW,10.4,-,N/A,,Clear,230,2013-09-17 21:51:00
3:51 PM,64.9,57.9,78,29.75,9.0,SW,9.2,-,N/A,,Clear,220,2013-09-17 22:51:00
4:51 PM,64.9,57.9,78,29.74,8.0,WSW,9.2,-,N/A,,Clear,240,2013-09-17 23:51:00
5:51 PM,64.0,57.9,80,29.73,8.0,SW,6.9,-,N/A,,Clear,230,2013-09-18 00:51:00
6:51 PM,63.0,57.9,84,29.73,7.0,WSW,4.6,-,N/A,,Clear,250,2013-09-18 01:51:00
7:51 PM,63.0,57.9,84,29.73,8.0,Calm,Calm,-,N/A,,Clear,0,2013-09-18 02:51:00
8:51 PM,63.0,57.0,81,29.74,8.0,Calm,Calm,-,N/A,,Clear,0,2013-09-18 03:51:00
9:51 PM,63.0,57.0,81,29.75,8.0,Calm,Calm,-,N/A,,Clear,0,2013-09-18 04:51:00
10:51 PM,61.0,55.9,83,29.75,8.0,Calm,Calm,-,N/A,,Clear,0,2013-09-18 05:51:00
11:51 PM,61.0,57.9,90,29.75,8.0,SE,3.5,-,N/A,,Clear,130,2013-09-18 06:51:00